Terminal Aerodrome Forecast
Issued by NWS Raleigh/Durham, NC

Home | Current Version | Previous Version | Text Only | Print | Product List | Glossary On
Versions: 1 2 3 4 5 6 7 8 9 10 11 12 13 14 15 16 17 18 19 20 21 22 23 24 25 26 27 28 29 30 31 32 33 34 35 36 37 38 39 40 41 42 43 44 45 46 47
797
FTUS42 KRAH 062158 AAC
TAFRDU
TAF AMD
KRDU 062158Z 0622/0718 30008KT 3SM -RA BR BKN008 OVC020
      TEMPO 0622/0702 2SM -RA BR BKN005 BKN020
     FM070300 32002KT 2SM BR OVC004
     FM071000 30003KT 4SM BR SCT004 SCT250
     FM071200 34006KT P6SM BKN250=

USA.gov is the U.S. government's official web portal to all federal, state and local government web resources and services.